Location: Makanda
(37.6176°N, 89.2090°W)
Time: 05:34:16
(UTC+00:00)

COSMOS 2441 - Pass Details

Date: 23 September 2019
Orbit: 709 x 730 km, 98.0° (Epoch: 18 October)

Event Time Altitude Azimuth Distance (km) Brightness Sun altitude
Rises 10:02:36 0° 13° (NNE) 3,148 8.1 -20.9°
Reaches altitude 10° 10:04:53 10° 15° (NNE) 2,226 7.3 -20.4°
Maximum altitude 10:09:47 78° 102° (ESE) 747 4.5 -19.5°
Drops below altitude 10° 10:14:40 10° 189° (S) 2,219 6.7 -18.6°
Enters shadow 10:15:49 - 190° (S) 2,680 7.1 -18.4°
